Regional Weather Roundup
Issued by NWS

Home | Current Version | Previous Version | Graphics & Text | Print | Product List | Glossary On
Versions: 1 2 3 4 5 6 7 8 9 10 11 12 13 14 15 16 17 18 19 20 21 22 23 24 25 26 27 28 29 30 31 32 33 34 35 36 37 38 39 40 41 42 43 44 45 46 47 48 49 50
000
ASUS43 KMPX 271801
RWRMN
WEATHER ROUNDUP FOR MINNESOTA
NATIONAL WEATHER SERVICE TWIN CITIES/CHANHASSEN MN
100 PM CDT TUE SEP 27 2016


NOTE: "FAIR" INDICATES FEW OR NO CLOUDS BELOW 12,000 FEET WITH NO
SIGNIFICANT WEATHER AND/OR OBSTRUCTIONS TO VISIBILITY. N/A MEANS
CURRENT SKY AND/OR WEATHER CONDITIONS ARE NOT AVAILABLE.

MNZ060>063-068>070-271900-
   Twin Cities Metro

CITY           SKY/WX    TMP DP  RH WIND       PRES   REMARKS
TWIN CITIES    CLOUDY    60  43  53 NW14      29.79F
6HR MIN TEMP:  49; 6HR MAX TEMP:  60;

ST PAUL        PTSUNNY   58  43  57 NW16      29.80F
CRYSTAL        CLOUDY    57  39  51 NW18G25   29.79F
BLAINE         PTSUNNY   57  45  62 W15       29.79F
LAKEVILLE      PTSUNNY   57  43  58 NW20G26   29.79F
EDEN PRAIRIE   MOSUNNY   61  40  45 NW13G22   29.79F
6HR MIN TEMP:  48; 6HR MAX TEMP:  62;

LAKEVILLE      PTSUNNY   57  43  58 NW20G26   29.79F
SOUTH ST PAUL  CLOUDY    58  42  54 NW10      29.79F
LAKE ELMO      CLOUDY    55  43  62 NW20G25   29.80F
$$
MNZ001>005-007-008-013>017-022>024-027-028-271900-
   Northwest Minnesota

CITY           SKY/WX    TMP DP  RH WIND       PRES   REMARKS
BEMIDJI        DRIZZLE   47  43  85 NW13      29.81S
HALLOCK        CLOUDY    54  45  71 NW17G23   29.89S
ROSEAU         CLOUDY    52  45  76 N8        29.85R
THIEF RVR FALL CLOUDY    51  43  74 NW18G26   29.88R
CROOKSTON      PTSUNNY   54  45  71 N17G25    29.89S
FOSSTON        CLOUDY    48  41  76 NW17G25   29.86S
DETROIT LAKES  PTSUNNY   54  41  62 NW21      29.87F
MOORHEAD       SUNNY     61  39  44 NW17      29.88F
PARK RAPIDS    CLOUDY    51  40  65 NW21      29.82S
MAHNOMEN       CLOUDY    51  42  70 NW22      29.86F
$$
MNZ006-009>011-018-025>026-271900-
   North Central Minnesota

CITY           SKY/WX    TMP DP  RH WIND       PRES   REMARKS
BAUDETTE       LGT RAIN  48  45  89 N12       29.80S FOG
FLAG ISLAND    CLOUDY    46  43  87 N16       29.82R
INTL FALLS     LGT RAIN  47  43  86 N13       29.76S
6HR MIN TEMP:  46; 6HR MAX TEMP:  47; 6HR PCP:  0.14;

WASKISH        LGT RAIN  46  45  93 NW10G17   29.80S
BIG FORK       RAIN      46  45  93 NW6       29.77R
GRAND RAPIDS   LGT RAIN  47  45  93 N15       29.78R
ORR            CLOUDY    46  43  87 NW10G20   29.71R
COOK           RAIN      46  45  93 N5        29.73R
WALKER         DRIZZLE   47  43  88 NW12G18   29.80S
$$
MNZ012-019>021-037-271900-
   Northeast Minnesota

CITY           SKY/WX    TMP DP  RH WIND       PRES   REMARKS
DULUTH         LGT RAIN  50  45  83 NW16G25   29.69S
6HR MIN TEMP:  48; 6HR MAX TEMP:  51; 6HR PCP:  0.01;

ELY            LGT RAIN  46  45  93 NW7G20    29.69R
HIBBING        LGT RAIN  46  43  89 NW16G25   29.73R
EVELETH        LGT RAIN  47  45  90 NW12G21   29.72R
DULUTH HARBOR  CLOUDY    54  46  76 NW17      29.71R
TWO HARBORS    DRIZZLE   52  46  82 N3        29.66R
SILVER BAY     DRIZZLE   52  45  76 NW6       29.64R
GRAND MARAIS     N/A     54  44  69 N14G26    29.57S
G MARAIS ARPRT CLOUDY    48  43  81 NW10G20   29.60S
$$
MNZ029>031-032-039>041-046>048-054>057-064-271900-
   West Central Minnesota

CITY           SKY/WX    TMP DP  RH WIND       PRES   REMARKS
FERGUS FALLS   SUNNY     57  41  54 NW20G28   29.88F
MORRIS         SUNNY     64  34  32 NW21G32   29.86F
ALEXANDRIA     SUNNY     57  39  51 NW22G30   29.85F
ELBOW LAKE     FAIR      58  39  50 W17G26    29.87F
WADENA         CLOUDY    54  41  62 NW17G28   29.83F
GLENWOOD       SUNNY     57  37  47 NW21G30   29.85F
BENSON         SUNNY     64  30  27 N22G28    29.86F
ORTONVILLE     SUNNY     63  32  31 NW18G24   29.88F
MADISON        SUNNY     66  36  32 NW18G25   29.88F
WILLMAR        FAIR      63  37  39 NW23G30   29.86F
$$
MNZ033>034-036-042>043-049>051-058-059-271900-
   Central Minnesota

CITY           SKY/WX    TMP DP  RH WIND       PRES   REMARKS
ST CLOUD       CLOUDY    55  43  63 NW17G26   29.80F
6HR MIN TEMP:  45; 6HR MAX TEMP:  56;

SAUK CENTRE    FAIR      56  39  54 NW16      29.83F
PAYNESVILLE    SUNNY     59  37  43 NW18      29.83F
AITKIN         MIX PCPN  52  45  76 NW8       29.77S
PINE RIVER     CLOUDY    52  43  71 NW12G17   29.83S
BRAINERD       CLOUDY    51  42  71 NW7G23    29.80S
STAPLES        CLOUDY    52  39  62 NW15G22   29.82S
LONG PRAIRIE   FAIR      54  41  62 W15G23    29.83F
LITTLE FALLS   CLOUDY    54  39  58 NW15G22   29.82S
LITCHFIELD     SUNNY     61  43  51 W17G24    29.83F
BUFFALO        PTSUNNY   57  39  50 W16G23    29.81F
MAPLE LAKE     PTSUNNY   58  43  57 NW13G21   29.82F
HUTCHINSON     CLOUDY    62  39  42 W18G25    29.84F
$$
MNZ037-044-045-052-053-271900-
   East Central Minnesota

CITY           SKY/WX    TMP DP  RH WIND       PRES   REMARKS
PRINCETON      CLOUDY    55  43  62 W16G23    29.80F
MORA           LGT RAIN  50  43  76 NW12      29.79F
CAMBRIDGE      CLOUDY    55  43  62 NW17      29.77F
MOOSE LAKE     LGT RAIN  50  45  81 NW8       29.73S
HINCKLEY       LGT RAIN  50  46  87 W10       29.76S
CLOQUET        LGT RAIN  48  45  87 NW12      29.72S
MCGREGOR       CLOUDY    48  46  93 NW10G17   29.76S
$$
MNZ071>073-080-081-089-090-097-098-271900-
   Southwest Minnesota

CITY           SKY/WX    TMP DP  RH WIND       PRES   REMARKS
MONTEVIDEO     SUNNY     64  36  34 N15G24    29.89F
GRANITE FALLS  SUNNY     65  35  33 NW22G28   29.89F
CANBY          SUNNY     65  31  27 W22G28    29.90F
MARSHALL       SUNNY     65  31  28 NW20G28   29.88F
REDWOOD FALLS  SUNNY     64  33  31 NW16G25   29.86F
OLIVIA         SUNNY     63  36  36 NW17G25   29.85F
PIPESTONE      SUNNY     66  32  28 NW17G23   29.92F
WINDOM         SUNNY     64  28  25 W15G22    29.88F
WORTHINGTON    SUNNY     65  38  36 W18G25    29.91F
JACKSON        SUNNY     68  25  19 W17G26    29.88F
TRACY          SUNNY     67  32  27 NW13G25   29.89F
$$
MNZ065>067-074>077-082>085-091>093-271900-
   South Central Minnesota

CITY           SKY/WX    TMP DP  RH WIND       PRES   REMARKS
MANKATO        SUNNY     63  34  33 NW21G28   29.83F
ST JAMES       SUNNY     64  36  34 W14G21    29.87F
FAIRMONT       SUNNY     65  33  30 NW15G23   29.87F
GLENCOE        SUNNY     61  41  48 W17G26    29.82F
FARIBAULT      SUNNY     63  39  42 W21G26    29.82F
OWATONNA       SUNNY     61  36  39 W20G28    29.82F
WASECA         SUNNY     63  36  36 W22G29    29.84F
ALBERT LEA     SUNNY     63  32  31 NW14G28   29.83F
$$
MNZ078>079-086>088-094>096-271900-
   Southeast Minnesota

CITY           SKY/WX    TMP DP  RH WIND       PRES   REMARKS
ROCHESTER      SUNNY     61  38  42 W16G30    29.80F
6HR MIN TEMP:  45; 6HR MAX TEMP:  63;

RED WING       PTSUNNY   57  39  51 NW7G18    29.77F
STANTON        MOSUNNY   61  41  48 W18G24    29.79F
DODGE CENTER   SUNNY     61  37  41 NW21G32   29.81F
WINONA         PTSUNNY   59  41  51 NW18G24   29.77F
AUSTIN         SUNNY     63  36  36 NW17G31   29.81F
PRESTON        SUNNY     59  36  42 NW25G32   29.80F
$$
ABBREVIATIONS USED IN REMARKS
   TC - TEMPERATURES IN CELSIUS
  WCI - WIND CHILL INDEX
   HX - HEAT INDEX
  VSB - VISIBILITY
$$




USA.gov is the U.S. government's official web portal to all federal, state and local government web resources and services.